Location: Augirein
(42.9320°N, 0.9181°E)
Time: 20:09:09
(UTC+00:00)

DELTA 2 R/B (1) - Pass Details

Date: 20 June 2021
Orbit: 789 x 803 km, 39.6° (Epoch: 31 July)

Event Time Altitude Azimuth Distance (km) Brightness Sun altitude
Rises 03:39:08 0° 273° (W) 3,277 6.3 -6.4°
Reaches altitude 10° 03:41:40 10° 268° (W) 2,348 5.6 -6.0°
Maximum altitude 03:47:01 51° 194° (SSW) 986 3.8 -5.3°
Drops below altitude 10° 03:52:22 10° 119° (ESE) 2,351 6.3 -4.5°
Sets 03:54:54 0° 115° (ESE) 3,282 7.2 -4.2°
